Location: Kellogg
(38.0159°N, 90.0546°W)
Time: 18:56:30
(UTC+00:00)

S-56A Canister/Altair - Pass Details

Date: 14 September 2024
Orbit: 636 x 2487 km, 38.9° (Epoch: 04 October)

Event Time Altitude Azimuth Distance (km) Brightness Sun altitude
Rises 02:25:10 0° 265° (W) 3,510 11.8 -26.2°
Reaches altitude 10° 02:27:20 10° 266° (W) 2,739 11.1 -26.6°
Maximum altitude 02:34:02 86° 355° (N) 1,302 8.5 -27.8°
Enters shadow 02:37:06 47° 81° (E) 1,845 9.0 -28.3°
Drops below altitude 10° 02:44:29 10° 85° (E) 4,142 - -29.6°
Sets 02:48:29 0° 86° (E) 5,414 - -30.2°
